Airfield :
LOGIN :

Register | Disclaimer

   EN    FR    IT 

 










Legend :    VFR   Marginal VFR   IFR   Intensive IFR   Very Intensive IFR
Visi :
Ceiling :
>= 8 km
>= 3000ft
5 to 8 km
1000 to 3000 ft
1500m to 5 km
500 to 1000 ft
800 to 1500m
200 to 500 ft
< 800m
< 200 ft
Symbols :   Thunderstorms  Fog  Heavy snow  Heavy precipitations  Wind > 20 kt
SIGMETs :     Misc.  Thunderstorms  Icing  Turbulence  Mountain Waves  Volcanic Ashes







- Airport Elevation : 765 ft


LOAV - Vöslau

CURRENT METAR :
  • 281600Z 30010G22KT 40KM BKN055CU 24/09

EXPIRED METARs :
  • 281500Z 30020G37KT 40KM BKN055CU 24/09
  • 281400Z 28025G42KT 40KM BKN055CU 25/10

TAF TAF LOAV
Valid from the 28 at 09:00 until the 28 at 18:00 UTC


280800Z 2809/2818 28014KT 9999 FEW050 SCT120
TEMPO 2809/2816 29018G32KT
No reported NOTAMs for that airfield.



MET'MAP, your aeronautical weather chart ! - Copyright ORBIFLY December 2007 - Disclaimer

ORBIFLY MET'MAP TEAM :

Programming & Development : Alexandra Zaïnal
Concept & Development : Baudouin d'Aumeries
Co-Development & Prog : Marc-Olivier Méhu
Technical & hardware support : Manuel Goepfert

Contact : metmap@orbifly.com




SOURCES & CREDITS :

   NOAA